COSMOS 1275 DEB, 42120

Orbit data source: Space-Track

COSMOS 1275 DEB, 42120 is space debris in LEO originally from a launch on Thu, 04 Jun 1981 UTC launched from the Plesetsk Missile And Space Complex (PKMTR). Debris objects in space refer to the collection of defunct objects orbiting the Earth. Examples of debris include non-operational satellites, rocket bodies, and fragments generated from explosions, collisions, or faulty payload assembly.

Loading next visibility...
Identifier
42120, 1981-053QG
Orbit
LEO
Country
Flag of CISCIS
Related business
Manufacturer
Unknown
Mission
Spacecraft
Bus & Motor
Unknown
Mass
Unknown
Launch date (UTC)
1981-06-04 (45 years ago)
Launch vehicle
Unknown
Launch site
Plesetsk Missile And Space Complex (PKMTR)
Object type
Payload
Rocket body
Debris
Shape & HBR
Unknown shape, 0.1 m
Radar Cross Section
Small (<0.1 m²)

Expand to show TLE details & history
Last TLE update: 17 hours ago

TLE from 17 hours ago
0 COSMOS 1275 DEB
1 42120U 81053QG  25352.79779023  .00000816  00000-0  98519-3 0  9997
2 42120  82.9288 176.0589 0190677 133.8278 227.8813 13.57943048596887
Epoch: 2025-12-18T19:08Z
TLE epoch observation values (Epoch: 2025-12-18T19:08:49.075Z)
Latitude
0.00001°
Longitude
161.20629°
Altitude
1,142.435 km
Speed
7.234 km/s
True Right ascension
11h 44m 14s
True Declination
0° 00' 00"
Sunlit
Object was in daylight at epoch
Visualization orbit readout
Latitude
Unknown
Longitude
Unknown
Altitude
Unknown
Speed
Unknown
Apparent Right ascension
Unknown
Apparent Declination
Unknown
Sunlit
N/A
Visualization observer readout
Local Sidereal Time
10:53:35
Azimuth
Unknown
Elevation
Unknown
Doppler factor
Unknown
Orbital elements
Apogee altitude
1,181.802 km
Perigee altitude
898.895 km
Semi-major axis
7,418.485 km
Eccentricity
0.01907
Inclination
82.9288°
RAAN
176.0589°
Arg. of periapsis
133.8278°
True anomaly
226.28628°
Mean anomaly
227.8813°
Eccentric anomaly
227.08124°
Mean motion
3.3968 °/min
Orbital period
105.98 mins
BSTAR
0.00098519
Loading maneuver chart data...
Computing Atmospheric mass density...
Loading historical data...
Loading historical data...
Loading historical data...
Loading historical data...
Loading historical data...
Loading historical data...
Loading historical data...

Documentation

Showing up to 5 results
|